THORAD AGENA D DEB, 4654

Orbit data source: Space-Track

THORAD AGENA D DEB, 4654 is space debris in SSO originally from a launch on Wed, 08 Apr 1970 UTC launched from the Air Force Western Test Range (AFWTR). Debris objects in space refer to the collection of defunct objects orbiting the Earth. Examples of debris include non-operational satellites, rocket bodies, and fragments generated from explosions, collisions, or faulty payload assembly.

Loading next visibility...
THORAD AGENA D DEB details
Identifier
4654, 1970-025AN
Orbit
SSO
Last TLE update17 hours ago
Origin
Flag of USGSFC (US)
ManufacturerUnknown
MissionSpacecraft
Bus & MotorUnknown
MassUnknown
Launch date (UTC)
1970-04-08 (55 years ago)
Launch vehicleUnknown
Launch site
Air Force Western Test Range (AFWTR)
Object type
Payload
Rocket body
Debris
Shape & HBRUnknown
Radar Cross SectionSmall (<0.1 m²)

Expand to show TLE details & history

TLE from 17 hours ago
0 THORAD AGENA D DEB
1 04654U 70025AN  25023.81875846  .00005103  00000-0  27539-2 0  9999
2 04654 100.0022 129.8820 0025543  28.2338 332.0209 14.13018585767893
Epoch: 2025-01-23T19:39Z
Definitive object data (Epoch: 2025-01-23T19:39:00.73Z)
Latitude-0.00005°
Longitude71.73815°
Altitude835.626 km
Speed7.443 km/s
True Right ascension08h 39m 31s
True Declination0° 00' 00"
Sunlit
Object was in full shadow at TLE epoch
Visualization TLE readout
Latitude-0.4654°
Longitude72.60979°
Altitude835.447 km
Speed7.444 km/s
Apparent Right ascension06h 11m 57s
Apparent Declination-27° 50' 07"
Sunlit
Object is in full shadow
Visualization observer readout
Local Sidereal Time13:54:23
Azimuth261.944° W
Elevation-36.354°
Doppler factor1
Orbital elements
Apogee altitude864.748 km
Perigee altitude827.841 km
Semi-major axis7,224.432 km
Eccentricity0.0025543
Inclination100.0022°
RAAN129.882°
Arg. of periapsis28.2338°
True anomaly331.88319°
Mean anomaly332.0209°
Eccentric anomaly331.95208°
Mean motion3.53458 °/min
BSTAR0.0027539
Orbital period101.85 mins
Loading maneuver chart data...

THORAD AGENA D DEB Visibility forecast

Observer location: undefined°, undefined

Span
Click to sort rows by Start time (UTC) header in descending order
Start Az.
Max El. time (UTC)
Max El. Az.
Max El.
End time (UTC)
End Az.
9 mins2025-01-24 20:01:31.022Z12.713° NNE2025-01-24 20:05:31.022Z328.831° NNW44.53°2025-01-24 20:10:31.022Z200.531° SSW
6 mins2025-01-25 05:48:31.022Z101.222° ESE2025-01-25 05:50:31.022Z71.057° E23.428°2025-01-25 05:54:31.022Z14.723° NNE
8 mins2025-01-25 07:27:31.022Z197.286° SSW2025-01-25 07:31:31.022Z268.832° W32.971°2025-01-25 07:35:31.022Z326.291° NNW
|